Location: Ebendorf
(52.1827°N, 11.5706°E)
Time: 06:37:59
(UTC+00:00)

Daily predictions for brighter satellites

Satellite Brightness Start Highest point End
(mag) Time Altitude Azimuth Time Altitude Azimuth Time Altitude Azimuth
GENESIS II 4.3 19:55:16 10° NW 19:59:21 90° SSW 20:03:20 10° SE
STARLINK-1238 4.4 19:56:29 10° SSW 20:00:06 29° SE 20:03:42 10° E
STARLINK-1113 3.8 19:56:04 10° W 20:00:13 79° N 20:04:23 10° E
STARLINK-1115 4.1 19:56:35 10° WNW 20:00:35 47° SSW 20:04:34 10° SE
STARLINK-1188 3.3 19:57:49 10° SW 20:00:46 39° SSE 20:03:43 10° E
STARLINK-1235 3.1 19:58:23 10° SW 20:01:23 47° SSE 20:04:22 10° E
Cosmos 2279 Rocket 4.3 19:55:18 10° N 20:01:26 54° ENE 20:07:31 10° SSE
STARLINK-1187 3.2 19:58:52 10° SW 20:01:49 43° SSE 20:04:47 10° E
STARLINK-1126 3.6 19:58:45 10° WNW 20:02:55 89° SSW 20:07:05 10° ESE
STARLINK-1191 3.3 20:00:16 10° SW 20:03:12 41° SSE 20:06:09 10° E
Cosmos 1975 3.0 19:59:19 10° NNW 20:03:24 77° W 20:07:27 10° S
STARLINK-1221 3.2 20:01:07 10° SW 20:04:04 41° SSE 20:07:01 10° E
STARLINK-1222 3.2 20:02:01 10° SW 20:04:58 42° SSE 20:07:56 10° E
STARLINK-1201 4.4 20:01:22 10° SSW 20:05:02 31° SE 20:08:44 10° E
STARLINK-1119 3.8 20:01:03 10° W 20:05:12 79° N 20:09:22 10° E
STARLINK-1076 4.2 20:01:35 10° WNW 20:05:34 45° SSW 20:09:31 10° SE
MOS 1 Rocket 4.5 20:01:23 10° N 20:05:45 45° WNW 20:09:54 10° SW
STARLINK-1214 3.2 20:02:54 10° SW 20:05:51 42° SSE 20:08:49 10° E
STARLINK-67 1.8 20:05:05 10° W 20:06:58 70° N 20:08:52 10° ENE
Cosmos 1703 Rocket 3.8 20:02:52 10° SSW 20:07:11 74° WNW 20:11:33 10° N
STARLINK-1082 3.6 20:03:49 10° WNW 20:07:58 87° SSW 20:12:08 10° ESE
Okean 2 Rocket 3.3 20:04:10 10° N 20:08:36 59° ENE 20:12:57 10° SSE
STARLINK-1206 4.3 20:06:16 10° SSW 20:09:59 33° SE 20:13:44 10° E
STARLINK-1114 3.8 20:06:01 10° W 20:10:11 78° N 20:14:21 10° E
STARLINK-1092 4.3 20:06:34 10° WNW 20:10:30 42° SSW 20:14:25 10° SE
STARLINK-1100 3.6 20:08:47 10° WNW 20:12:57 85° SSW 20:17:07 10° ESE
BREEZE-M DEB (TANK) 3.5 20:07:16 10° WSW 20:13:08 49° SSE 20:16:31 10° E
Cosmos 407 Rocket 4.4 20:09:01 10° NW 20:14:08 48° WSW 20:19:14 10° S
STARLINK-1205 4.2 20:11:10 10° SSW 20:14:56 35° SSE 20:18:44 10° E
STARLINK-1130 (DARKSAT) 3.8 20:11:00 10° W 20:15:10 78° N 20:19:20 10° E
Cosmos 1452 Rocket 4.5 20:10:45 10° SSE 20:15:13 29° E 20:19:43 10° NE
STARLINK-1080 4.4 20:11:36 10° W 20:15:30 40° SSW 20:19:23 10° SE
Okean 1 4.1 20:11:47 10° SSW 20:15:47 57° WNW 20:19:48 10° N
NOSS 2-3 (D) 3.8 20:12:33 10° SSW 20:16:48 55° SE 20:21:54 10° NE
OPS 8737 4.2 20:13:50 10° SSW 20:17:16 58° SE 20:20:09 10° NE
Cosmos 1634 Rocket 4.2 20:11:07 10° NNW 20:17:27 83° W 20:23:47 10° S
STARLINK-1083 3.6 20:13:46 10° WNW 20:17:55 82° SSW 20:22:05 10° ESE
Cosmos 2278 Rocket 2.5 20:13:14 10° S 20:18:36 46° ESE 20:24:00 10° NE
STARLINK-1218 4.1 20:16:02 10° SW 20:19:52 37° SSE 20:23:43 10° E
STARLINK-1084 3.8 20:16:00 10° W 20:20:09 78° N 20:24:19 10° E
STARLINK-1090 4.5 20:16:34 10° W 20:20:25 38° SSW 20:24:11 10° SE
Cosmos 1420 Rocket 4.4 20:15:57 10° S 20:20:50 42° ESE 20:25:43 10° NE
Meteor 1-19 Rocket 4.4 20:16:07 10° SSW 20:21:45 86° WNW 20:27:36 10° NNE
Cosmos 2151 Rocket 3.9 20:17:21 10° N 20:21:50 58° ENE 20:26:18 10° SSE
USA 215 3.6 20:16:16 10° E 20:22:47 71° NNE 20:29:18 10° WNW
STARLINK-1125 3.6 20:18:45 10° WNW 20:22:55 80° SSW 20:27:04 10° ESE
Okean 1 Rocket 4.2 20:19:34 10° N 20:23:37 31° ENE 20:27:32 10° SE
STARLINK-1254 4.0 20:20:57 10° SW 20:24:49 40° SSE 20:28:43 10° E
STARLINK-1098 3.8 20:21:00 10° W 20:25:10 78° N 20:29:20 10° E
Cosmos 1844 Rocket 3.8 20:21:08 10° SW 20:26:38 49° NW 20:32:08 10° NNE
SPOT 5 3.2 20:21:47 10° SSE 20:26:52 65° ENE 20:32:10 10° N
USA 229 DEB 3.8 20:21:10 10° SW 20:27:47 83° NW 20:34:49 10° NE
STARLINK-1109 3.6 20:23:43 10° WNW 20:27:52 77° SSW 20:32:01 10° ESE
USA 229 3.8 20:21:17 10° SW 20:27:53 83° NW 20:34:55 10° NE
STARLINK-1231 4.0 20:25:54 10° SW 20:29:48 42° SSE 20:33:44 10° E
STARLINK-1123 3.8 20:25:59 10° W 20:30:09 78° N 20:34:19 10° E
Cosmos 1437 Rocket 3.7 20:27:26 11° SSE 20:30:34 29° E 20:33:53 10° NNE
SL-4 R/B 1.3 20:29:10 10° NW 20:32:26 82° NE 20:35:01 14° SE
STARLINK-1091 3.6 20:28:42 10° WNW 20:32:51 74° SSW 20:36:59 10° ESE
STARLINK-1232 3.9 20:30:49 10° SW 20:34:45 44° SSE 20:38:43 10° ENE
STARLINK-1097 3.8 20:30:57 10° W 20:35:06 79° N 20:39:16 10° E
NOSS 3-1 (C) 3.8 20:29:34 10° SW 20:35:15 72° NW 20:42:01 10° NE
Cosmos 1515 4.5 20:32:18 10° SSW 20:36:03 53° WNW 20:39:49 10° N
ATLAS 3B R/B 4.4 20:30:54 10° NW 20:36:47 31° N 20:42:48 10° ENE
NOSS 3-1 (A) 3.4 20:31:09 10° SW 20:36:47 86° SE 20:43:29 10° NE
SPOT 1/Viking Rocket 3.7 20:31:50 10° S 20:37:00 74° WSW 20:42:11 10° NNW
Meteor 1-12 Rocket 4.3 20:31:48 10° NNW 20:37:29 82° W 20:43:09 10° S
STARLINK-1072 3.6 20:33:41 10° WNW 20:37:50 71° SSW 20:41:56 10° ESE
STARLINK-1208 3.8 20:35:44 10° SW 20:39:42 47° SSE 20:43:42 10° ENE
CENTAUR R/B 4.1 20:33:03 10° NW 20:40:06 43° NNE 20:48:04 10° E
STARLINK-1099 3.7 20:35:56 10° W 20:40:06 79° N 20:44:16 10° E
Intercosmos 24 3.8 20:36:12 10° NNW 20:40:07 76° W 20:43:39 10° S
Landsat 7 4.3 20:36:16 10° S 20:40:57 57° W 20:45:41 10° NNW
STARLINK-1096 3.6 20:38:41 10° WNW 20:42:49 68° SSW 20:46:44 11° ESE
Cosmos 1624 Rocket 4.3 20:38:02 10° SSW 20:43:21 75° WNW 20:48:44 10° NNE
STARLINK-1271 3.8 20:40:40 10° SW 20:44:40 50° SSE 20:48:42 10° ENE
Cosmos 1741 Rocket 4.1 20:39:33 10° NNW 20:44:48 73° ENE 20:49:22 14° SSE
Meteor 1-4 Rocket 3.3 20:41:41 10° SSW 20:45:03 50° WNW 20:48:27 10° N
STARLINK-1104 3.7 20:40:55 10° W 20:45:04 80° N 20:49:14 10° E
NOSS 2-3 (C) 3.8 20:43:05 10° SW 20:47:30 90° S 20:52:57 10° NE
STARLINK-1079 3.7 20:43:40 10° WNW 20:47:47 65° SSW 20:51:31 12° ESE
ERBS 3.1 20:45:56 10° SSW 20:48:50 28° SE 20:51:45 10° ENE
CARTOSAT-1 3.6 20:44:54 11° S 20:49:03 79° WSW 20:53:23 10° NNW
COSMOS 2406 4.3 20:43:51 10° NW 20:49:10 39° WSW 20:54:27 10° S
STARLINK-1154 3.7 20:45:38 10° SW 20:49:39 52° SSE 20:53:42 10° ENE
STARLINK-1144 3.7 20:45:54 10° W 20:50:04 81° N 20:54:14 10° E
Aureole 2 Rocket 4.1 20:51:46 14° ESE 20:52:33 15° ESE 20:54:26 10° ENE
STARLINK-1116 3.7 20:48:38 10° WNW 20:52:45 62° SSW 20:56:18 13° SE
ATLAS CENTAUR R/B 2.6 20:52:17 10° W 20:54:05 25° NNW 20:55:42 10° NE
STARLINK-1197 3.7 20:50:33 10° SW 20:54:36 55° SSE 20:58:40 10° ENE
Crew Dragon 0.7 20:52:57 10° W 20:54:57 35° SSW 20:55:49 24° SSE
STARLINK-1103 3.7 20:50:53 10° W 20:55:03 82° N 20:59:13 10° E
Meteor 2-4 Rocket 3.8 20:50:05 10° SSW 20:55:27 73° WNW 21:00:50 10° N
Meteor 1-13 Rocket 4.2 20:51:40 10° S 20:57:15 81° E 21:02:59 10° NNE
Cosmos 332 Rocket 4.2 20:53:28 10° S 20:58:08 45° ESE 21:02:49 10° NE
Cosmos 1850 Rocket 4.1 20:52:54 10° NNW 20:58:17 88° WSW 21:02:45 15° SSE
STARLINK-1198 3.6 20:55:29 10° SW 20:59:33 58° SSE 21:03:38 10° ENE
STARLINK-1101 3.7 20:55:52 10° W 21:00:02 83° N 21:04:11 10° E
Okean 3 4.0 20:56:51 10° SSW 21:01:06 60° WNW 21:05:23 10° N
SeaSat 1 3.5 20:58:00 10° NE 21:02:08 26° ESE 21:05:00 16° SSE
SL-8 R/B 3.8 20:57:28 10° WSW 21:02:10 56° S 21:06:54 10° ESE
STARLINK-1094 3.8 20:58:37 10° WNW 21:02:42 57° SSW 21:05:52 16° SE
Cosmos 1733 4.4 21:01:07 10° N 21:04:32 30° ENE 21:07:01 15° SE
STARLINK-1199 3.6 21:00:27 10° SW 21:04:33 61° SSE 21:08:38 10° ENE
STARLINK-1102 3.6 21:00:50 10° W 21:05:00 85° N 21:09:10 10° E
ERS-1 Rocket 3.4 21:00:21 11° S 21:05:12 57° W 21:10:11 10° NNW
Cosmos 1300 Rocket 4.4 21:01:43 10° NNW 21:06:00 46° W 21:10:15 10° SSW
STARLINK-1117 3.8 21:03:36 10° WNW 21:07:39 54° SSW 21:10:38 17° SE
STARLINK-1210 3.6 21:05:25 10° WSW 21:09:31 64° SSE 21:13:38 10° ENE
NOSS 3-2 (A) 4.4 21:02:29 10° NW 21:09:34 62° NE 21:17:40 10° ESE
STARLINK-1111 3.6 21:05:51 10° W 21:10:01 86° N 21:14:11 10° E
STARLINK-1078 3.9 21:08:35 10° WNW 21:12:37 51° SSW 21:15:25 18° SE
Cosmos 1461 4.1 21:11:25 18° SSE 21:13:09 24° ESE 21:16:39 10° ENE
ISS -3.1 21:10:14 10° W 21:13:24 38° SSW 21:15:05 22° SSE
STARLINK-1219 3.5 21:10:21 10° WSW 21:14:28 67° SSE 21:18:36 10° ENE
STARLINK-1073 3.6 21:10:50 10° W 21:15:00 88° NNE 21:19:10 10° ESE
Cosmos 2297 4.3 21:11:31 14° S 21:15:52 39° ESE 21:21:09 10° NE
STARLINK-1192 4.4 21:13:31 10° SSW 21:17:06 29° SE 21:20:42 10° E
STARLINK-1108 4.0 21:13:34 10° WNW 21:17:35 48° SSW 21:20:12 20° SE
USA 238 DEB 4.2 21:10:31 10° NW 21:17:35 65° NE 21:24:57 10° ESE
USA 238 4.2 21:10:36 10° NW 21:17:41 65° NE 21:25:03 10° ESE
STARLINK-1211 3.5 21:15:18 10° WSW 21:19:25 70° SSE 21:23:34 10° ENE
STARLINK-1121 3.6 21:15:47 10° WNW 21:19:57 90° S 21:24:07 10° ESE
STARLINK-1244 4.4 21:18:23 10° SSW 21:22:02 30° SE 21:25:42 10° E
STARLINK-1071 4.0 21:18:34 10° WNW 21:22:32 46° SSW 21:24:59 21° SE
STARLINK-1245 3.5 21:20:17 10° WSW 21:24:25 73° SSE 21:28:34 10° ENE
Cosmos 1674 Rocket 3.6 21:20:51 12° SSW 21:24:55 80° W 21:29:21 10° N
STARLINK-1106 3.6 21:20:47 10° WNW 21:24:57 88° SSW 21:29:06 10° ESE
STARLINK-1234 2.9 21:22:10 10° W 21:25:18 79° N 21:28:27 10° E
Terra 2.3 21:21:43 15° S 21:25:36 57° W 21:30:20 10° NNW
Cosmos 2082 Rocket 2.8 21:20:19 10° NW 21:25:48 48° WSW 21:30:10 16° S
STARLINK-1212 2.8 21:23:25 10° W 21:26:33 84° NNW 21:29:40 10° E
STARLINK-1110 4.1 21:22:42 10° WNW 21:26:40 43° SSW 21:28:58 22° SSE
STARLINK-1138 4.3 21:23:15 10° SSW 21:26:58 32° SE 21:30:41 10° E
STARLINK-1105 2.8 21:23:53 10° W 21:26:59 84° NNW 21:30:06 10° E
STARLINK-1247 2.9 21:24:47 10° W 21:27:55 83° N 21:31:02 10° E
STARLINK-1227 2.9 21:25:15 10° W 21:28:22 83° N 21:31:28 10° E
STARLINK-1226 2.9 21:26:07 10° W 21:29:15 83° N 21:32:23 10° E
STARLINK-1233 3.5 21:25:15 10° WSW 21:29:23 76° SSE 21:33:32 10° ENE
Lacrosse 5 2.6 21:24:48 10° WNW 21:29:31 40° SW 21:32:31 20° SSE
STARLINK-1112 3.5 21:25:47 10° WNW 21:29:57 86° SSW 21:34:03 10° ESE
STARLINK-1215 2.9 21:27:02 10° W 21:30:10 82° N 21:33:18 10° E
STARLINK-1209 3.0 21:27:25 10° W 21:30:36 77° N 21:33:48 10° E
Cosmos 1378 Rocket 3.6 21:28:01 15° S 21:31:44 87° WNW 21:36:10 10° N
STARLINK-1143 4.2 21:28:09 10° SSW 21:31:55 34° SE 21:35:42 10° E
STARLINK-1217 2.9 21:28:50 10° W 21:31:57 82° N 21:35:05 10° E
Cosmos 1833 Rocket 4.1 21:27:18 10° NW 21:32:03 29° WSW 21:36:38 11° SSW
Cosmos 1331 Rocket 4.4 21:28:52 19° S 21:32:16 44° ESE 21:37:10 10° NE
STARLINK-1203 4.2 21:28:31 10° SSW 21:32:21 35° SSE 21:36:13 10° E
STARLINK-1124 4.2 21:28:32 10° W 21:32:26 41° SSW 21:34:32 23° SSE
Abrixas rocket 2.4 21:29:58 10° WSW 21:32:45 37° S 21:33:32 30° SSE
STARLINK-1229 2.9 21:29:43 10° W 21:32:51 81° N 21:35:59 10° E
Cosmos 1470 4.2 21:29:49 10° N 21:33:10 26° ENE 21:35:25 16° ESE
STARLINK-1270 2.9 21:30:37 10° W 21:33:45 81° N 21:36:53 10° E
STARLINK-1204 3.5 21:30:14 10° WSW 21:34:22 78° SSE 21:38:32 10° ENE
Spot 4 4.3 21:31:03 19° SE 21:34:26 55° ENE 21:39:11 10° N
STARLINK-1128 3.5 21:30:45 10° WNW 21:34:55 83° SSW 21:38:49 12° ESE
STARLINK-1228 3.2 21:31:36 10° W 21:34:57 77° N 21:38:18 10° E
STARLINK-1189 2.9 21:32:26 10° W 21:35:33 80° NNW 21:38:42 10° E
STARLINK-1188 2.9 21:33:20 10° W 21:36:28 80° N 21:39:36 10° E
STARLINK-1241 4.1 21:33:03 10° SW 21:36:52 36° SSE 21:40:42 10° E
EO 1 Del DPAF 3.9 21:33:31 10° NNE 21:37:04 37° E 21:38:45 24° SSE
STARLINK-1235 3.0 21:34:02 10° W 21:37:08 76° N 21:40:14 10° E
STARLINK-1122 4.3 21:33:32 10° W 21:37:24 38° SSW 21:39:20 24° SSE
STARLINK-1187 2.9 21:34:28 10° W 21:37:34 78° N 21:40:40 10° E
STARLINK-1191 2.9 21:35:49 10° W 21:38:55 79° N 21:42:02 10° E
STARLINK-67 1.4 21:37:02 10° WNW 21:38:54 86° WNW 21:38:54 86° WNW
STARLINK-1238 3.5 21:35:11 10° WSW 21:39:21 81° SSE 21:43:30 10° ENE
STARLINK-1221 2.9 21:36:40 10° W 21:39:46 79° N 21:42:53 10° E
STARLINK-1113 3.5 21:35:44 10° WNW 21:39:54 81° SSW 21:43:35 13° ESE
Cosmos 1805 3.2 21:36:13 10° NNW 21:40:10 82° W 21:42:30 23° S
STARLINK-1222 2.9 21:37:35 10° W 21:40:42 78° N 21:43:49 10° E
STARLINK-1214 2.9 21:38:28 10° W 21:41:35 78° N 21:44:42 10° E
STARLINK-1239 4.0 21:37:58 10° SW 21:41:50 39° SSE 21:45:43 10° E
STARLINK-1126 4.3 21:38:27 10° W 21:42:16 36° SSW 21:44:02 24° SSE
MTI 4.1 21:39:17 10° N 21:42:24 60° WNW 21:44:38 17° SSW
Nadezhda 4 Rocket 4.0 21:37:08 12° SSW 21:42:52 82° W 21:49:03 10° N
NOSS 8 (F) 4.2 21:41:17 20° SSW 21:43:10 53° SE 21:46:10 10° NE
Cosmos 1975 Rocket 3.5 21:40:41 23° SSE 21:43:12 47° E 21:47:28 10° NNE
Cosmos 1378 3.0 21:41:31 23° S 21:43:43 76° E 21:47:27 10° NNE
Cosmos 2369 Rocket 3.5 21:41:46 18° SE 21:44:12 24° ESE 21:48:35 10° NE
STARLINK-1201 3.5 21:40:10 10° WSW 21:44:19 84° SSE 21:48:29 10° ENE
STARLINK-1119 3.5 21:40:43 10° WNW 21:44:52 78° SSW 21:48:22 14° ESE
Cosmos 371 Rocket 3.8 21:40:27 10° SW 21:45:15 61° WNW 21:50:07 10° NNE
STARLINK-1240 4.0 21:42:53 10° SW 21:46:47 41° SSE 21:50:42 10° E
STARLINK-1082 4.4 21:43:32 10° W 21:47:18 34° SW 21:48:53 25° S
STARLINK-1206 3.5 21:45:09 10° WSW 21:49:18 86° SSE 21:53:28 10° ENE
Cosmos 1066 Rocket 4.3 21:44:45 12° SSW 21:49:46 74° WNW 21:55:09 10° N
STARLINK-1114 3.5 21:45:41 10° WNW 21:49:50 75° SSW 21:53:09 16° ESE
Cosmos 1943 Rocket 2.9 21:48:17 21° SSE 21:51:06 34° ESE 21:56:06 10° NE
STARLINK-1216 3.9 21:47:48 10° SW 21:51:44 43° SSE 21:55:41 10° ENE
Thor Agena Rocket 3.7 21:47:34 10° NNE 21:52:52 62° ESE 21:56:22 21° S
STARLINK-1205 3.5 21:50:07 10° WSW 21:54:17 88° SSE 21:58:27 10° ENE
STARLINK-1130 (DARKSAT) 3.5 21:50:40 10° WNW 21:54:48 72° SSW 21:57:55 17° ESE
Aureole 3 Rocket 4.1 21:51:16 10° N 21:56:18 62° ENE 22:01:07 20° SSE
Cosmos 1842 3.6 21:54:32 27° SSE 21:56:22 51° E 22:00:11 10° NNE
STARLINK-1237 3.8 21:52:43 10° SW 21:56:42 46° SSE 22:00:41 10° ENE
Cosmos 1452 Rocket 4.3 21:51:55 10° SW 21:57:05 53° WNW 22:02:18 10° NNE
Okean 2 3.4 21:55:05 25° S 21:57:22 70° E 22:01:32 10° NNE
STARLINK-1218 3.6 21:55:05 10° WSW 21:59:14 90° WNW 22:03:24 10° ENE
STARLINK-1084 3.5 21:55:38 10° WNW 21:59:46 69° SSW 22:02:42 19° ESE
SL-27 R/B 3.0 21:57:26 10° NNW 22:01:01 53° ENE 22:02:48 25° SE
Okean 1 Rocket 4.3 21:57:28 10° NNW 22:01:33 35° W 22:04:43 15° SSW
Cosmos 1900 4.3 21:56:33 10° NW 22:01:36 87° SW 22:04:53 22° SE
STARLINK-1202 3.8 21:57:40 10° SW 22:01:40 49° SSE 22:05:41 10° ENE
Cosmos 2278 Rocket 3.5 21:57:25 10° WSW 22:02:47 42° NW 22:08:12 10° NNE
STARLINK-1254 3.6 22:00:04 10° WSW 22:04:13 88° N 22:08:23 10° E
STARLINK-1098 3.6 22:00:39 10° WNW 22:04:46 66° SSW 22:07:30 20° ESE
USA 215 3.3 22:00:55 18° SE 22:05:56 61° SW 22:12:26 10° WNW
Cosmos 1437 Rocket 4.5 22:03:30 10° SW 22:06:49 28° WNW 22:10:09 10° N
Helios 1A 4.2 22:06:30 17° ESE 22:09:06 34° ENE 22:12:56 10° N
STARLINK-1231 3.6 22:05:04 10° W 22:09:13 86° NNW 22:13:24 10° E
STARLINK-1123 3.6 22:05:38 10° WNW 22:09:44 63° SSW 22:12:17 22° SE
STARLINK-1246 3.7 22:07:31 10° SW 22:11:34 54° SSE 22:15:37 10° ENE
Cosmos 1726 3.7 22:08:43 10° N 22:11:54 26° ENE 22:13:48 18° ESE
NOSS 8 (H) 4.1 22:11:26 33° SSW 22:12:36 63° SE 22:15:42 10° NE
Cosmos 1455 Rocket 3.0 22:09:12 10° NNW 22:13:35 79° W 22:15:52 27° S
NOSS 2-2 (D) 3.5 22:12:35 31° S 22:13:52 45° SE 22:17:47 10° NE
STARLINK-1232 3.6 22:10:02 10° W 22:14:12 84° NNW 22:18:22 10° E
STARLINK-1097 3.6 22:10:35 10° WNW 22:14:41 61° SSW 22:17:02 24° SE
NOSS 3-2 (C) 4.1 22:07:58 10° NW 22:15:16 82° NE 22:23:05 12° SE
STARLINK-1224 3.6 22:12:29 10° SW 22:16:33 57° SSE 22:20:38 10° ENE
STARLINK-1208 3.6 22:15:02 10° W 22:19:11 83° N 22:23:21 10° E
STARLINK-1099 3.7 22:15:34 10° WNW 22:19:39 58° SSW 22:21:49 26° SE
STARLINK-1225 3.6 22:17:25 10° SW 22:21:30 60° SSE 22:25:36 10° ENE
Cosmos 1092 Rocket 4.2 22:17:01 16° SSW 22:21:59 68° WNW 22:28:08 10° N
Cosmos 1025 Rocket 3.6 22:21:46 27° SE 22:23:36 42° E 22:27:40 10° NNE
STARLINK-1271 3.7 22:20:01 10° W 22:24:10 82° N 22:28:20 10° E
STARLINK-1104 3.7 22:20:33 10° WNW 22:24:37 55° SSW 22:26:36 27° SE
ERBS 2.7 22:21:40 10° WSW 22:24:57 62° NNW 22:28:17 10° ENE
Aureole 2 Rocket 3.2 22:23:49 17° SW 22:25:57 41° WNW 22:28:52 10° NNE
STARLINK-1230 3.5 22:22:23 10° WSW 22:26:29 63° SSE 22:30:36 10° ENE
BREEZE-M DEB (TANK) 3.2 22:15:50 10° WSW 22:26:32 57° S 22:29:50 10° E
ATLAS 3B R/B 3.3 22:22:14 10° NW 22:28:51 55° NE 22:35:38 10° ESE
STARLINK-1154 3.7 22:25:02 10° W 22:29:11 81° N 22:33:21 10° E
STARLINK-1144 3.8 22:25:33 10° WNW 22:29:35 52° SSW 22:31:23 29° SE
SL-4 R/B 0.8 22:30:57 55° W 22:30:57 55° W 22:33:03 10° NNW
Cosmos 1833 4.4 22:25:13 10° NNW 22:30:52 66° NE 22:35:02 18° SE
EXPRESS MD2 4.5 22:26:48 10° SW 22:31:15 59° SSE 22:40:39 10° E
STARLINK-1243 3.5 22:27:20 10° WSW 22:31:27 66° SSE 22:35:35 10° ENE
CENTAUR R/B 3.2 22:23:56 10° NW 22:31:47 86° NE 22:40:06 12° SE
NOSS 2-2 (E) 3.1 22:30:16 22° SW 22:32:31 79° SE 22:36:50 10° NE
Meteor 2-13 Rocket 4.5 22:29:17 21° SSW 22:33:35 84° W 22:39:48 10° N
STARLINK-1197 3.7 22:29:58 10° W 22:34:09 80° N 22:38:18 10° E
COSMOS 2455 4.5 22:32:11 15° SE 22:34:21 18° ESE 22:38:15 10° ENE
STARLINK-1103 3.8 22:30:32 10° WNW 22:34:33 49° SSW 22:36:10 31° SSE
Cosmos 1271 Rocket 3.0 22:33:25 33° SSE 22:34:51 54° E 22:38:41 10° NNE
STARLINK-1236 3.5 22:32:18 10° WSW 22:36:25 69° SSE 22:40:34 10° ENE
Cosmos 1953 2.7 22:33:12 10° N 22:37:10 55° ENE 22:39:00 29° SE
Cosmos 1340 Rocket 3.6 22:33:24 10° N 22:37:18 45° ENE 22:39:21 24° SE
STARLINK-1198 3.7 22:34:57 10° W 22:39:06 79° N 22:43:16 10° E
STARLINK-1101 3.9 22:35:31 10° WNW 22:39:30 46° SSW 22:40:56 32° SSE
SeaSat 1 2.8 22:35:06 10° NNE 22:39:59 63° NW 22:44:46 10° SW
ALOS 2 2.6 22:40:11 30° S 22:42:19 74° WSW 22:46:44 10° NNW
Cosmos 1707 2.9 22:41:13 34° SSE 22:42:43 60° E 22:46:35 10° NNE
Cosmos 1536 Rocket 3.7 22:40:52 30° SSE 22:42:47 58° E 22:47:04 10° NNE
Cosmos 1242 Rocket 2.5 22:41:38 35° SSW 22:43:06 88° WNW 22:46:48 10° NNE
Meteor 2-8 Rocket 4.4 22:37:00 10° N 22:43:11 87° E 22:46:59 25° S
STARLINK-1199 3.7 22:39:58 10° W 22:44:07 79° N 22:48:17 10° E
SL-8 R/B 4.1 22:39:49 10° W 22:44:20 40° SSW 22:46:22 26° SSE
STARLINK-1102 4.0 22:40:29 10° WNW 22:44:27 44° SSW 22:45:42 33° SSE
Meteor 2-10 4.0 22:40:03 10° N 22:45:10 78° ENE 22:47:58 27° SSE
Cosmos 1503 Rocket 4.1 22:40:43 10° NNW 22:46:02 79° ENE 22:49:21 24° SSE
STARLINK-1269 3.5 22:42:13 10° WSW 22:46:21 75° SSE 22:50:30 10° ENE
Cosmos 1758 3.5 22:42:29 10° NNW 22:46:30 65° W 22:48:13 32° SSW
Meteor 1-16 Rocket 4.4 22:41:47 10° N 22:47:25 64° ENE 22:50:50 23° SSE
Aureole 3 3.8 22:44:22 10° N 22:48:03 43° ENE 22:49:22 28° SE
Cosmos 2228 4.2 22:44:38 10° N 22:48:32 33° ENE 22:51:04 18° SE
STARLINK-1210 3.7 22:44:58 10° W 22:49:07 78° N 22:53:17 10° E
STARLINK-1111 4.0 22:45:31 10° W 22:49:26 41° SSW 22:50:31 34° S
Cosmos 1544 Rocket 4.1 22:45:15 10° NNW 22:49:26 48° W 22:51:28 27° SSW
S3M 3.9 22:43:34 10° N 22:49:44 85° W 22:53:32 25° S
SJ 16-02 4.4 22:49:30 10° NNE 22:50:24 10° NE 22:51:17 10° NE
STARLINK-1200 3.5 22:47:12 10° WSW 22:51:21 77° SSE 22:55:30 10° ENE
Cosmos 1461 3.4 22:47:44 10° WSW 22:51:54 60° NW 22:56:19 10° NE
STARLINK-1219 3.7 22:49:55 10° W 22:54:05 78° N 22:58:15 10° E
STARLINK-1073 4.1 22:50:31 10° W 22:54:23 39° SSW 22:55:18 34° S
Cosmos 968 Rocket 3.5 22:50:01 10° NNW 22:55:10 69° WSW 22:57:53 28° S
Cosmos 1655 Rocket 4.0 22:51:31 25° S 22:55:21 79° E 23:01:38 10° NNE
NOSS 2-2 (C) 3.2 22:53:12 21° SW 22:55:35 83° NW 22:59:51 10° NE
STARLINK-1192 3.5 22:52:11 10° WSW 22:56:19 80° SSE 23:00:29 10° ENE
ATLAS 2AS CENTAUR R/B 3.6 22:51:57 23° S 22:56:27 42° ESE 23:03:46 10° NE
STARLINK-1211 3.7 22:54:54 10° W 22:59:03 78° N 23:03:13 10° E
STARLINK-1121 4.2 22:55:29 10° W 22:59:19 37° SSW 23:00:03 34° S
Cosmos 1867 3.6 22:54:39 10° NW 23:00:10 80° NE 23:04:39 16° SE
NOSS 3-2 (A) 4.3 22:53:26 10° NW 23:00:35 51° WSW 23:05:46 23° S
STARLINK-1234 2.7 22:58:06 10° WNW 23:01:14 89° SSW 23:04:00 13° ESE
STARLINK-1244 3.5 22:57:08 10° WSW 23:01:18 83° SSE 23:05:27 10° ENE
Cosmos 1354 Rocket 4.0 22:56:14 10° NNW 23:01:33 89° WSW 23:04:42 25° SSE
Cosmos 1674 3.9 23:00:43 23° SE 23:02:02 30° E 23:05:22 10° NNE
STARLINK-1212 2.8 22:59:20 10° W 23:02:27 84° N 23:05:34 10° E
STARLINK-1105 2.8 22:59:47 10° W 23:02:54 85° NNE 23:06:00 10° E
STARLINK-1247 2.8 23:00:41 10° WNW 23:03:49 85° N 23:06:57 10° E
STARLINK-1245 3.7 22:59:54 10° W 23:04:04 78° N 23:08:13 10° E
STARLINK-1227 2.8 23:01:08 10° WNW 23:04:15 85° N 23:07:22 10° E
STARLINK-1106 4.2 23:00:30 10° W 23:04:17 35° SSW 23:04:51 33° SSW
Cosmos 292 Rocket 3.7 23:02:16 28° SSW 23:04:52 81° ESE 23:09:45 10° NNE
STARLINK-1226 2.8 23:02:01 10° WNW 23:05:09 86° NNE 23:08:17 10° E
STARLINK-1215 2.8 23:02:56 10° WNW 23:06:05 86° NNE 23:09:12 10° E
STARLINK-1138 3.5 23:02:06 10° WSW 23:06:16 85° SSE 23:10:25 10° ENE
SL-4 R/B 3.9 23:06:52 20° SE 23:06:52 20° SE 23:10:08 10° E
Cosmos 1553 Rocket 4.5 23:00:36 10° NNW 23:06:43 52° W 23:10:34 22° SSW
STARLINK-1209 2.8 23:03:37 10° WNW 23:06:48 83° SSW 23:09:22 15° ESE
STARLINK-1217 2.8 23:04:43 10° WNW 23:07:51 87° N 23:10:59 10° E
USA 238 DEB 4.3 23:01:42 10° NW 23:08:27 45° WSW 23:12:35 24° S
USA 238 4.3 23:01:47 10° NW 23:08:33 45° WSW 23:12:42 24° S
STARLINK-1229 2.8 23:05:37 10° WNW 23:08:46 87° NNE 23:11:53 10° ESE
STARLINK-1233 3.7 23:04:53 10° W 23:09:02 79° N 23:13:12 10° E
STARLINK-1112 4.3 23:05:31 10° W 23:09:15 33° SW 23:09:39 32° SSW
Cosmos 1470 3.9 23:05:46 10° NNW 23:09:15 32° W 23:10:45 24° SW
STARLINK-1270 2.8 23:06:31 10° WNW 23:09:39 88° N 23:12:47 10° ESE
STARLINK-1143 3.5 23:07:05 10° WSW 23:11:15 87° SSE 23:15:25 10° ENE
STARLINK-1189 2.8 23:08:19 10° WNW 23:11:27 89° N 23:14:35 10° ESE
STARLINK-1228 2.9 23:08:25 10° WNW 23:11:47 81° SSW 23:15:01 11° ESE
Cosmos 2292 Rocket 3.4 23:10:01 32° S 23:11:50 69° E 23:15:20 10° NNE
STARLINK-1203 3.6 23:07:42 10° WSW 23:11:55 88° SSE 23:16:09 10° ENE
STARLINK-1188 2.8 23:09:14 10° WNW 23:12:22 89° N 23:15:31 10° ESE
STARLINK-1235 2.7 23:09:55 10° WNW 23:13:01 83° SSW 23:15:25 16° ESE
STARLINK-1187 2.7 23:10:20 10° WNW 23:13:27 87° S 23:16:28 11° ESE
STARLINK-1204 3.7 23:09:52 10° W 23:14:02 79° N 23:18:12 10° E
STARLINK-1128 4.4 23:10:31 10° W 23:14:11 31° SW 23:14:25 31° SSW
STARLINK-1191 2.7 23:11:42 10° WNW 23:14:50 89° SSE 23:17:56 10° ESE
STARLINK-1221 2.7 23:12:33 10° WNW 23:15:40 89° SSW 23:18:47 10° ESE
Cosmos 1606 Rocket 3.8 23:11:49 10° N 23:16:06 61° ENE 23:18:23 26° SSE
STARLINK-1241 3.5 23:12:04 10° WSW 23:16:13 90° S 23:20:24 10° ENE
STARLINK-1222 2.7 23:13:28 10° WNW 23:16:36 88° SSW 23:19:42 10° ESE
STARLINK-1214 2.7 23:14:22 10° WNW 23:17:29 88° S 23:20:35 10° ESE
STARLINK-1238 3.7 23:14:51 10° W 23:19:01 80° N 23:23:11 10° E
STARLINK-1239 3.6 23:17:04 10° WSW 23:21:13 88° NNW 23:25:23 10° ENE
CZ-2D R/B 4.4 23:21:06 10° ENE 23:23:21 13° E 23:25:35 10° ESE
Cosmos 2227 Rocket 4.2 23:18:39 10° NNW 23:23:32 28° NE 23:28:22 10° E
STARLINK-1201 3.7 23:19:50 10° W 23:24:00 80° N 23:28:09 10° E
ATLAS CENTAUR R/B 2.8 23:23:07 22° SE 23:24:04 24° ESE 23:27:27 10° ENE
YAOGAN 11 4.2 23:22:51 31° S 23:24:48 61° WSW 23:29:07 10° NNW
Cosmos 1908 3.2 23:21:19 10° N 23:25:10 77° ENE 23:26:46 33° SSE
Cosmos 2098 Rocket 4.4 23:20:51 24° S 23:25:15 68° E 23:32:40 10° NNE
STARLINK-1240 3.6 23:22:02 10° W 23:26:12 87° N 23:30:22 10° E
Cosmos 2369 Rocket 2.3 23:23:30 19° SW 23:27:41 73° WNW 23:33:22 10° NNE
STARLINK-1206 3.7 23:24:49 10° W 23:28:59 81° N 23:33:09 10° E
Resurs 1-4 Rocket 4.3 23:27:11 10° NE 23:30:09 15° E 23:33:07 10° ESE
STARLINK-1216 3.6 23:27:00 10° W 23:31:10 85° N 23:35:20 10° E
STARLINK-1205 3.6 23:29:48 10° W 23:33:59 82° N 23:38:08 10° E
Cosmos 1943 Rocket 2.8 23:29:46 13° SW 23:34:40 52° NW 23:40:10 10° NNE
STARLINK-1237 3.6 23:31:59 10° W 23:36:10 84° N 23:40:20 10° E
ATLAS CENTAUR R/B 1.8 23:34:30 10° NW 23:36:30 47° NNE 23:39:54 10° ESE
Meteor 1-29 4.0 23:34:00 10° NNE 23:37:09 34° E 23:38:15 27° SE
STARLINK-1218 3.6 23:34:46 10° W 23:38:55 84° N 23:43:05 10° E
PSLV R/B 3.9 23:36:00 10° NNE 23:40:37 63° ESE 23:42:52 28° S
STARLINK-1202 3.6 23:36:59 10° W 23:41:09 82° N 23:45:19 10° E
Timation 2 Rocket 4.1 23:35:47 10° NNW 23:42:15 76° NE 23:48:21 10° SE
KORONAS-FOTON 3.8 23:41:15 35° S 23:42:47 77° E 23:46:38 10° NNE
RESURS DK-1 4.1 23:41:34 18° SE 23:43:01 21° ESE 23:46:10 10° ENE
STARLINK-1254 3.6 23:39:45 10° W 23:43:55 85° N 23:48:04 10° E
Cosmos 2266 Rocket 4.1 23:40:01 23° SSW 23:43:57 67° WNW 23:50:00 10° N
Helios 1A 4.1 23:43:07 23° SW 23:44:42 30° W 23:48:27 10° NNW
Cosmos 1174 4.3 23:44:06 30° SE 23:44:43 32° ESE 23:48:02 10° NE
Landsat 4 4.1 23:42:28 10° N 23:46:06 52° WNW 23:47:49 27° SW
GEOS 3 Rocket 3.6 23:42:34 14° SE 23:47:07 77° SW 23:52:27 10° NW
Cosmos 1726 3.4 23:43:52 10° NNW 23:47:07 29° W 23:48:18 24° SW
COSMOS 2487 2.8 23:45:17 10° NNW 23:48:39 48° WSW 23:49:33 37° SSW
STARLINK-1231 3.6 23:44:46 10° W 23:48:55 87° N 23:53:06 10° E
SL-16 R/B 3.6 23:43:27 10° SE 23:49:11 43° ENE 23:54:58 10° N
USA 215 4.5 23:48:14 19° SW 23:49:53 21° SW 23:54:41 10° WNW
Cosmos 1992 Rocket 4.2 23:46:54 22° SW 23:50:16 69° WNW 23:55:29 10° NNE
Meteor 2-5 Rocket 3.9 23:47:20 24° S 23:50:39 65° E 23:56:13 10° NNE
STARLINK-1246 3.7 23:46:56 10° W 23:51:06 80° N 23:55:16 10° E
CZ-4 R/B 3.8 23:46:35 10° NNE 23:51:29 85° ESE 23:54:05 27° SSW
NOSS 5 (C) 4.3 23:50:03 10° NW 23:53:08 70° SW 23:55:03 25° SSE
STARLINK-1232 3.6 23:49:44 10° WNW 23:53:54 89° NNE 23:58:04 10° ESE
Cosmos 1437 4.5 23:54:27 17° ESE 23:55:33 21° E 23:57:54 10° NE
Helios 1B rocket 2.4 23:51:30 10° NNE 23:55:39 88° E 23:57:40 30° SSW
NOSS 7 (A) 4.5 23:54:58 37° SW 23:56:02 86° NW 23:58:59 10° NE
